Regional Weather Roundup
Issued by NWS

Home | Current Version | Previous Version | Text Only | Print | Product List | Glossary On
Versions: 1 2 3 4 5 6 7 8 9 10 11 12 13 14 15 16 17 18 19 20 21 22 23 24 25 26 27 28 29 30 31 32 33 34 35 36 37 38 39 40 41 42 43 44 45 46 47 48 49 50
000
ASUS43 KTOP 280259
RWRKS

WEATHER ROUNDUP FOR KANSAS
NATIONAL WEATHER SERVICE GOODLAND KS
1000 PM CDT MON MAR 27 2017

NOTE:  "FAIR" INDICATES FEW OR NO CLOUDS BELOW 12,000 FEET WITH NO
SIGNIFICANT WEATHER AND/OR OBSTRUCTIONS TO VISIBILITY.

KSZ001>006-013>018-027>032-041>047-280400-
NORTHWEST KANSAS

CITY           SKY/WX    TMP DP  RH WIND       PRES   REMARKS
GOODLAND       CLOUDY    52  40  63 SE12      29.89R
HAYS             N/A     48  43  82 E13       29.95R
HILL CITY      CLEAR     49  42  77 E9        29.96R
RUSSELL        CLEAR     45  43  93 E9        29.95R
$$

KSZ061>065-074>080-084>089-280400-
SOUTHWEST KANSAS

CITY           SKY/WX    TMP DP  RH WIND       PRES   REMARKS
DODGE CITY     CLEAR     49  41  74 E10       29.93R
ELKHART          N/A     52  32  46 E14         N/A
GARDEN CITY    CLEAR     53  40  61 SE17      29.90R
GREAT BEND     CLOUDY    49  45  86 SE10      29.96R
LIBERAL        CLEAR     55  36  47 E16       29.90R
$$

KSZ066>073-081>083-090>101-280400-
SOUTHEAST KANSAS

CITY           SKY/WX    TMP DP  RH WIND       PRES   REMARKS
CHANUTE        CLOUDY    53  46  77 NE6       29.99R
COFFEYVILLE    CLOUDY    55  49  80 CALM      29.98R
HUTCHINSON     CLOUDY    51  46  83 E8        29.98R
MEDICINE LODGE   N/A     49  44  83 E8        29.97R
NEWTON         CLOUDY    51  47  86 CALM      29.99R
PARSONS        CLOUDY    54  48  80 CALM      29.99R
WICHITA INTL   CLOUDY    52  46  80 E6        29.98R
WICHITA JABRA  CLOUDY    52  46  80 SE5       29.98R
WINFIELD       CLOUDY    53  46  77 E5        29.99R
$$

KSZ007>012-019>026-033>040-048>060-102>105-280400-
NORTHEAST KANSAS

CITY           SKY/WX    TMP DP  RH WIND       PRES   REMARKS
CONCORDIA      CLOUDY    49  47  93 E5        29.98R
EMPORIA        CLOUDY    53  47  79 E5        29.98R
LAWRENCE       CLOUDY    53  47  79 N7        29.99R
MANHATTAN      CLOUDY    52  46  80 E5        29.99R
OLATHE IND     CLOUDY    51  45  79 NE5       29.98R
OLATHE EXE     CLOUDY    51  46  83 NE7       29.98R
SALINA         CLOUDY    54  46  74 CALM      29.99R
TOPEKA BILLARD CLOUDY    52  46  80 N6        29.99R
TOPEKA FORBES  CLOUDY    53  46  77 N6        29.99R
$$



USA.gov is the U.S. government's official web portal to all federal, state and local government web resources and services.